TimePST,TemperatureF,Dew PointF,Humidity,Sea Level PressureIn,VisibilityMPH,Wind Direction,Wind SpeedMPH,Gust SpeedMPH,PrecipitationIn,Events,Conditions,WindDirDegrees,DateUTC
12:51 AM,57.9,54.0,87,30.17,9.0,Calm,Calm,-,N/A,,Partly Cloudy,0,2012-11-20 08:51:00
1:51 AM,57.0,53.1,87,30.16,8.0,Calm,Calm,-,N/A,,Partly Cloudy,0,2012-11-20 09:51:00
2:51 AM,55.9,52.0,87,30.14,7.0,NNE,3.5,-,N/A,,Scattered Clouds,20,2012-11-20 10:51:00
2:56 AM,55.4,51.8,88,30.14,7.0,Calm,Calm,-,N/A,,Scattered Clouds,0,2012-11-20 10:56:00
3:07 AM,55.4,51.8,88,30.14,8.0,Calm,Calm,-,N/A,,Mostly Cloudy,0,2012-11-20 11:07:00
3:51 AM,55.9,52.0,87,30.14,8.0,NNE,3.5,-,N/A,,Mostly Cloudy,30,2012-11-20 11:51:00
4:20 AM,55.4,51.8,88,30.14,9.0,North,3.5,-,N/A,,Scattered Clouds,10,2012-11-20 12:20:00
4:51 AM,54.0,51.1,90,30.14,8.0,North,3.5,-,N/A,,Partly Cloudy,350,2012-11-20 12:51:00
5:51 AM,54.0,50.0,86,30.15,8.0,Calm,Calm,-,N/A,,Partly Cloudy,0,2012-11-20 13:51:00
6:51 AM,54.0,50.0,86,30.16,7.0,Calm,Calm,-,N/A,,Partly Cloudy,0,2012-11-20 14:51:00
7:51 AM,57.0,51.1,81,30.17,8.0,Calm,Calm,-,N/A,,Partly Cloudy,0,2012-11-20 15:51:00
8:51 AM,61.0,53.1,75,30.17,10.0,NNW,5.8,-,N/A,,Scattered Clouds,330,2012-11-20 16:51:00
9:51 AM,64.0,53.1,67,30.16,10.0,West,5.8,-,N/A,,Scattered Clouds,280,2012-11-20 17:51:00
10:51 AM,64.9,52.0,63,30.13,10.0,WNW,9.2,-,N/A,,Clear,290,2012-11-20 18:51:00
11:51 AM,64.9,53.1,65,30.11,10.0,WNW,12.7,-,N/A,,Partly Cloudy,290,2012-11-20 19:51:00
12:28 PM,66.2,53.6,64,30.09,10.0,WNW,10.4,-,N/A,,Scattered Clouds,290,2012-11-20 20:28:00
12:51 PM,64.9,55.0,70,30.08,10.0,WNW,10.4,-,N/A,,Scattered Clouds,290,2012-11-20 20:51:00
1:51 PM,64.9,55.0,70,30.07,10.0,WNW,11.5,-,N/A,,Scattered Clouds,290,2012-11-20 21:51:00
2:51 PM,64.9,55.0,70,30.06,10.0,WNW,10.4,-,N/A,,Scattered Clouds,300,2012-11-20 22:51:00
3:51 PM,64.0,55.0,73,30.06,10.0,WNW,9.2,-,N/A,,Scattered Clouds,300,2012-11-20 23:51:00
4:51 PM,63.0,55.0,75,30.06,10.0,NNW,5.8,-,N/A,,Scattered Clouds,330,2012-11-21 00:51:00
5:51 PM,62.1,55.0,78,30.07,10.0,North,4.6,-,N/A,,Scattered Clouds,360,2012-11-21 01:51:00
6:51 PM,61.0,55.0,81,30.09,10.0,Calm,Calm,-,N/A,,Scattered Clouds,0,2012-11-21 02:51:00
7:51 PM,60.1,55.0,83,30.10,10.0,Calm,Calm,-,N/A,,Scattered Clouds,0,2012-11-21 03:51:00
8:51 PM,59.0,54.0,83,30.10,10.0,Calm,Calm,-,N/A,,Scattered Clouds,0,2012-11-21 04:51:00
9:51 PM,59.0,54.0,83,30.10,10.0,Calm,Calm,-,N/A,,Scattered Clouds,0,2012-11-21 05:51:00
10:51 PM,57.9,53.1,84,30.10,10.0,Calm,Calm,-,N/A,,Scattered Clouds,0,2012-11-21 06:51:00
11:51 PM,57.0,52.0,83,30.09,10.0,Calm,Calm,-,N/A,,Scattered Clouds,0,2012-11-21 07:51:00